STARLINK-3929 (52567 NORAD) Tracking and Keplerian Element Data
This shows tracking and keplerian element data for the satellite.
Feedback or suggestion? Click here.
Element | Value |
Catalog | 52567 |
Name | STARLINK-3929 |
Epoch Orbit | 130 |
Epoch Day | 167.08334491 |
Epoch Year | 2022 |
RAAN | 128.9944 |
Inclination | 53.2162 |
Eccentricity | 0.0002904 |
Argument of Perigee | 21.3611 |
Mean Anonmoly | 46.172 |
Mean Motion | 15.73248934 |
Decay Rate | -0.00018617 |
L1 | 1 52567U 22051AL 22167.08334491 -.00018617 00000+0 -12820-3 0 9995 |
L2 | 2 52567 53.2162 128.9944 0002904 21.3611 46.1720 15.73248934 1302 |
Live tracking and technical data element details for STARLINK-3929 (NORAD 52567). STARLINK-3929 can be tracked NOW for your location showing map with azimuth and elevation plus other details from your city location.
Track the satellite on the map from your city or location and see movement details for azimuth, elevation, latitude, longitude, range, height, and movement on the map or in text.
IsCatalogInMostPopularTable: catalog: 52567, numindb: 4
Update: records affected: 1
GetName: 52567 STARLINK-3929
Hit Count: updated at: Sat, 25 Jun 2022 04:41:23 GMT